FW7372 Weather Reports


time (UTC)temp
F
wind
direction
speed
knots
gust
knots
rain 1hr
in
rain 24hr
in
rain mn
in
humidity
%
barometer
mb
20260505113319 81 131 7.0 13.0 0.00 0.00 0.00 84 1028.0
20260505112819 81 130 6.1 12.2 0.00 0.00 0.00 84 1027.9
20260505112319 81 129 7.8 13.0 0.00 0.00 0.00 83 1027.8
20260505111819 81 134 7.0 13.0 0.00 0.00 0.00 82 1027.9
20260505110802 80 126 6.1 11.3 0.00 0.00 0.00 82 1027.9
20260505110302 80 132 5.2 11.3 0.00 0.00 0.00 84 1027.6
20260505101747 79 129 5.2 11.3 0.00 0.00 0.00 86 1027.4
20260505101247 78 130 5.2 11.3 0.00 0.00 0.00 87 1027.5
20260505100747 78 121 5.2 11.3 0.00 0.00 0.00 87 1027.2
20260505100247 78 118 5.2 11.3 0.00 0.00 0.00 87 1027.6
20260505094716 78 124 4.3 11.3 0.00 0.00 0.00 87 1027.0
20260505094216 78 107 3.5 11.3 0.00 0.00 0.00 87 1027.2
20260505093715 78 131 5.2 11.3 0.00 0.00 0.00 87 1027.2
20260505093215 78 106 4.3 11.3 0.00 0.00 0.00 87 1027.1
20260505092715 78 108 4.3 11.3 0.00 0.00 0.00 87 1026.9
20260505092215 78 102 4.3 11.3 0.00 0.00 0.00 87 1027.0
20260505091159 78 105 5.2 11.3 0.00 0.00 0.00 87 1026.9
20260505090659 78 107 4.3 11.3 0.00 0.00 0.00 86 1027.0
20260505090159 78 103 4.3 12.2 0.00 0.00 0.00 86 1026.7
20260505085659 78 82 5.2 12.2 0.00 0.00 0.00 87 1026.6
20260505085159 78 115 5.2 11.3 0.00 0.00 0.00 87 1026.7
20260505084659 78 129 6.1 11.3 0.00 0.00 0.00 87 1026.8
20260505083129 78 117 5.2 13.9 0.00 0.00 0.00 87 1026.4
20260505082628 78 134 6.1 13.9 0.00 0.00 0.00 87 1026.5
20260505082128 78 144 5.2 12.2 0.00 0.00 0.00 87 1026.4
20260505081628 78 135 6.1 12.2 0.00 0.00 0.00 87 1026.4
20260505080057 78 137 6.1 12.2 0.00 0.00 0.00 87 1026.4
20260505075557 78 127 5.2 12.2 0.00 0.00 0.00 87 1026.5
20260505075057 78 127 5.2 11.3 0.00 0.00 0.00 87 1026.2
20260505074557 78 129 5.2 11.3 0.00 0.00 0.00 87 1026.3
20260505074057 78 138 6.1 11.3 0.00 0.00 0.00 87 1026.4
20260505073042 78 111 5.2 11.3 0.00 0.00 0.00 86 1026.0
20260505072542 78 137 6.1 11.3 0.00 0.00 0.00 86 1026.2
20260505072042 79 135 6.1 11.3 0.00 0.00 0.00 86 1026.3
20260505071542 79 120 7.0 11.3 0.00 0.00 0.00 86 1026.2
20260505071042 79 131 5.2 11.3 0.00 0.00 0.00 86 1026.4
20260505070542 79 110 4.3 11.3 0.00 0.00 0.00 86 1026.1
20260505070042 79 118 5.2 11.3 0.00 0.00 0.00 86 1026.3
20260505065542 79 123 6.1 12.2 0.00 0.00 0.00 85 1026.3
20260505065042 79 102 4.3 12.2 0.00 0.00 0.00 85 1026.5
20260505064541 79 105 6.1 12.2 0.00 0.00 0.00 85 1026.3
20260505064041 79 117 6.1 12.2 0.00 0.00 0.00 86 1026.3
20260505063541 79 113 6.1 12.2 0.00 0.00 0.00 85 1026.3
20260505063041 79 132 7.0 12.2 0.00 0.00 0.00 85 1026.2
20260505062540 79 132 7.0 12.2 0.00 0.00 0.00 86 1026.4
20260505062040 79 98 6.1 12.2 0.00 0.00 0.00 86 1026.5
20260505061540 79 109 6.1 12.2 0.00 0.00 0.00 86 1026.6
20260505061040 79 105 5.2 11.3 0.00 0.00 0.00 86 1026.5
20260505060540 79 112 6.1 11.3 0.00 0.00 0.00 86 1026.6
20260505060040 79 89 4.3 11.3 0.00 0.00 0.00 86 1026.5
20260505055540 79 107 4.3 11.3 0.00 0.00 0.00 86 1026.4
20260505055040 79 104 5.2 11.3 0.00 0.00 0.00 86 1026.4
20260505054540 79 101 4.3 11.3 0.00 0.00 0.00 86 1026.4
20260505054040 79 91 5.2 11.3 0.00 0.00 0.00 86 1026.5
20260505053540 79 94 5.2 11.3 0.00 0.00 0.00 86 1026.8
20260505053039 79 96 6.1 11.3 0.00 0.00 0.00 86 1026.4
20260505052539 79 107 6.1 11.3 0.00 0.00 0.00 86 1026.6
20260505051524 79 107 6.1 11.3 0.00 0.00 0.00 86 1027.0
20260505051024 79 118 5.2 11.3 0.00 0.00 0.00 86 1026.9
20260505050524 79 105 4.3 12.2 0.00 0.00 0.00 86 1027.0
20260505041439 78 98 4.3 11.3 0.00 0.00 0.00 89 1027.2
20260505040424 78 126 7.0 11.3 0.00 0.00 0.00 89 1027.2
20260505035924 78 106 4.3 11.3 0.00 0.00 0.00 89 1027.5
20260505035423 78 143 6.1 11.3 0.00 0.00 0.00 89 1027.3
20260505034923 78 111 4.3 11.3 0.00 0.00 0.00 89 1027.1
20260505034423 78 127 7.0 11.3 0.00 0.00 0.00 89 1027.2
20260505033922 78 110 5.2 11.3 0.00 0.00 0.00 89 1027.4
20260505032907 78 148 7.0 11.3 0.00 0.00 0.00 90 1027.5
20260505032407 78 137 7.0 11.3 0.00 0.00 0.00 90 1027.6
20260505031906 78 130 6.1 11.3 0.00 0.00 0.00 90 1027.4
20260505031406 78 137 4.3 10.4 0.00 0.00 0.00 90 1027.5
20260505030906 78 109 4.3 10.4 0.00 0.00 0.00 90 1027.6
20260505030406 78 117 4.3 11.3 0.00 0.00 0.00 90 1027.8
20260505025905 78 121 4.3 11.3 0.00 0.00 0.00 90 1027.6
20260505025405 78 124 4.3 11.3 0.00 0.00 0.00 90 1027.6
20260505024905 78 108 3.5 11.3 0.00 0.00 0.00 90 1027.6
20260505024405 78 112 4.3 11.3 0.00 0.00 0.00 89 1027.8
20260505023905 78 108 4.3 11.3 0.00 0.00 0.00 89 1027.7
20260505023405 79 125 5.2 11.3 0.00 0.00 0.00 88 1027.4
20260505022905 79 130 5.2 11.3 0.00 0.00 0.00 87 1027.7
20260505022405 79 126 6.1 11.3 0.00 0.00 0.00 87 1027.7
20260505021904 79 113 4.3 11.3 0.00 0.00 0.00 86 1027.7
20260505020849 79 134 6.1 11.3 0.00 0.00 0.00 86 1027.5
20260505020349 79 124 6.1 11.3 0.00 0.00 0.00 86 1027.5
20260505015849 79 131 4.3 11.3 0.00 0.00 0.00 86 1027.6
20260505015348 79 126 3.5 11.3 0.00 0.00 0.00 86 1027.2
20260505014847 79 123 4.3 11.3 0.00 0.00 0.00 86 1027.7
20260505014347 79 120 3.5 11.3 0.00 0.00 0.00 86 1027.7
20260505013846 79 119 3.5 11.3 0.00 0.00 0.00 86 1027.7
20260505013346 79 125 4.3 11.3 0.00 0.00 0.00 85 1027.5
20260505012845 79 113 4.3 11.3 0.00 0.00 0.00 85 1027.5
20260505011316 79 90 4.3 11.3 0.00 0.00 0.00 85 1027.4
20260505010815 79 114 3.5 11.3 0.00 0.00 0.00 84 1027.2
20260505005800 79 127 5.2 12.2 0.00 0.00 0.00 84 1027.3
20260505005300 79 131 5.2 12.2 0.00 0.00 0.00 84 1027.3
20260505004759 80 117 3.5 12.2 0.00 0.00 0.00 84 1027.3
20260505004259 79 121 5.2 12.2 0.00 0.00 0.00 84 1027.1
20260505003759 80 120 4.3 12.2 0.00 0.00 0.00 83 1027.2
20260505003259 80 129 5.2 12.2 0.00 0.00 0.00 83 1027.1
20260505002245 80 140 5.2 11.3 0.00 0.00 0.00 83 1026.7
20260505001744 80 132 4.3 12.2 0.00 0.00 0.00 84 1026.8
20260505001244 79 141 6.1 12.2 0.00 0.00 0.00 84 1026.9
20260505000743 79 144 6.1 11.3 0.00 0.00 0.00 85 1026.6
20260505000244 79 136 5.2 9.6 0.00 0.00 0.00 85 1026.5
20260504235744 80 144 5.2 9.6 0.00 0.00 0.00 86 1026.4
20260504235243 80 141 4.3 9.6 0.00 0.00 0.00 85 1026.6
20260504234743 80 136 5.2 9.6 0.00 0.00 0.00 85 1026.7
20260504234244 80 138 4.3 9.6 0.00 0.00 0.00 85 1026.5
20260504233743 80 140 5.2 9.6 0.00 0.00 0.00 85 1026.4
20260504233242 80 137 4.3 9.6 0.00 0.00 0.00 84 1026.6
20260504232743 80 136 4.3 9.6 0.00 0.00 0.00 84 1026.5
20260504232243 80 139 5.2 9.6 0.00 0.00 0.00 84 1026.4
20260504231743 80 144 4.3 9.6 0.00 0.00 0.00 84 1026.4
20260504231243 80 144 4.3 9.6 0.00 0.00 0.00 84 1026.3
20260504230742 80 141 4.3 9.6 0.00 0.00 0.00 85 1026.3
20260504225728 80 137 4.3 10.4 0.00 0.00 0.00 84 1026.3
20260504225226 80 139 4.3 10.4 0.00 0.00 0.00 84 1026.1
20260504224727 80 129 3.5 10.4 0.00 0.00 0.00 84 1026.0
20260504224226 80 140 4.3 10.4 0.00 0.00 0.00 84 1026.0
20260504223210 80 142 4.3 10.4 0.00 0.00 0.00 84 1025.8
20260504222154 80 147 5.2 10.4 0.00 0.00 0.00 84 1025.8
20260504221654 80 141 5.2 10.4 0.00 0.00 0.00 84 1025.9
20260504221154 80 137 4.3 11.3 0.00 0.00 0.00 84 1025.6
20260504220654 80 151 7.0 11.3 0.00 0.00 0.00 84 1025.5
20260504220153 80 133 4.3 13.9 0.00 0.00 0.00 85 1025.6
20260504215652 80 136 4.3 13.9 0.00 0.00 0.00 85 1025.4
20260504215152 80 137 4.3 13.9 0.00 0.00 0.00 85 1025.4
20260504214137 80 135 7.0 13.9 0.00 0.00 0.00 84 1025.2
20260504213637 80 135 4.3 11.3 0.00 0.00 0.00 85 1025.2
20260504213137 80 143 5.2 13.0 0.00 0.00 0.00 85 1025.0
20260504212637 81 138 7.0 13.0 0.00 0.00 0.00 84 1024.9
20260504212137 81 147 5.2 11.3 0.00 0.00 0.00 85 1025.1
20260504211121 81 133 3.5 14.8 0.00 0.00 0.00 84 1024.7
20260504210621 81 146 6.1 14.8 0.00 0.00 0.00 84 1024.8
20260504210121 81 146 6.1 12.2 0.00 0.00 0.00 83 1025.0
20260504205621 81 139 6.1 11.3 0.00 0.00 0.00 83 1025.1
20260504205121 82 158 5.2 10.4 0.00 0.00 0.00 83 1025.0
20260504204620 82 151 3.5 10.4 0.00 0.00 0.00 83 1025.1
20260504204120 81 153 3.5 10.4 0.00 0.00 0.00 84 1024.8
20260504203619 81 163 4.3 10.4 0.00 0.00 0.00 85 1025.0
20260504203118 81 160 5.2 10.4 0.00 0.00 0.00 86 1025.0
20260504202618 80 146 3.5 11.3 0.00 0.00 0.00 87 1024.9
20260504202118 80 161 5.2 11.3 0.00 0.00 0.00 88 1024.8
20260504201103 80 128 4.3 11.3 0.00 0.00 0.00 88 1024.8
20260504200048 80 143 6.1 11.3 0.00 0.00 0.00 87 1024.9
20260504195548 80 163 6.1 10.4 0.00 0.00 0.00 87 1025.0
20260504195048 80 142 6.1 10.4 0.00 0.00 0.00 87 1025.0
20260504194548 80 143 5.2 11.3 0.00 0.00 0.00 88 1025.1
20260504194048 80 130 5.2 11.3 0.00 0.00 0.00 88 1025.0
20260504193548 80 113 6.1 11.3 0.00 0.00 0.00 88 1025.0
20260504193048 80 133 6.1 11.3 0.00 0.00 0.00 88 1025.3
20260504192548 80 152 6.1 11.3 0.00 0.00 0.00 88 1025.2
20260504191533 80 111 5.2 11.3 0.00 0.00 0.00 88 1025.3
20260504191033 81 122 5.2 11.3 0.00 0.00 0.00 88 1025.3
20260504190532 80 109 6.1 11.3 0.00 0.00 0.00 87 1025.2
20260504185002 80 117 6.1 12.2 0.00 0.00 0.00 87 1025.3
20260504183431 80 149 9.6 13.9 0.00 0.00 0.00 86 1025.6
20260504182931 81 131 7.8 13.9 0.00 0.00 0.00 85 1025.5
20260504182430 81 114 7.8 13.9 0.00 0.00 0.00 86 1025.5
20260504181930 81 59 6.1 12.2 0.00 0.00 0.00 85 1025.7
20260504181430 81 93 7.0 12.2 0.00 0.00 0.00 85 1026.0
20260504180930 81 154 7.0 12.2 0.00 0.00 0.00 85 1025.8
20260504180430 81 116 7.8 12.2 0.00 0.00 0.00 86 1025.8
20260504175930 81 107 6.1 13.0 0.00 0.00 0.00 86 1025.7
20260504175430 80 123 7.0 13.0 0.00 0.00 0.00 86 1025.9
20260504174930 80 114 7.0 11.3 0.00 0.00 0.00 86 1026.1
20260504174430 80 137 6.1 11.3 0.00 0.00 0.00 87 1026.1
20260504173930 80 149 7.8 11.3 0.00 0.00 0.00 88 1026.1
20260504173430 80 145 7.0 11.3 0.00 0.00 0.00 90 1026.1
20260504172930 79 120 6.1 12.2 0.00 0.00 0.00 90 1026.2
20260504171915 78 111 6.1 12.2 0.00 0.00 0.00 90 1026.6
20260504171415 77 141 6.1 13.0 0.00 0.00 0.00 90 1026.7
20260504170915 77 151 6.1 13.0 0.00 0.00 0.00 89 1026.7
20260504170415 78 153 8.7 17.4 0.00 0.00 0.00 88 1026.8
20260504160343 84 110 7.8 13.9 0.00 0.00 0.00 78 1027.6
20260504150325 83 119 7.8 14.8 0.00 0.00 0.00 78 1027.7
20260504141252 81 108 10.4 17.4 0.00 0.00 0.00 82 1028.0
20260504140752 81 92 9.6 18.2 0.00 0.00 0.00 82 1027.9
20260504130732 79 118 5.2 13.0 0.00 0.00 0.00 87 1027.8
20260504130232 79 78 7.8 13.0 0.00 0.00 0.00 87 1028.0